SL-8 DEB, 1617

Orbit data source: Space-Track

SL-8 DEB, 1617 is space debris in LEO originally from a launch on Sat, 18 Sep 1965 UTC launched from the Tyuratam Missile And Space Complex (TTMTR). Debris objects in space refer to the collection of defunct objects orbiting the Earth. Examples of debris include non-operational satellites, rocket bodies, and fragments generated from explosions, collisions, or faulty payload assembly.

Loading next visibility...
Identifier
1617, 1965-073J
Orbit
LEO
Country
Flag of CISCIS
Related business
Manufacturer
Unknown
Mission
Spacecraft
Bus & Motor
Unknown
Mass
Unknown
Launch date (UTC)
1965-09-18 (60 years ago)
Launch vehicle
Unknown
Launch site
Tyuratam Missile And Space Complex (TTMTR)
Object type
Payload
Rocket body
Debris
Shape & HBR
Unknown
Radar Cross Section
Medium (>0.1 m² and <1 m²)

Expand to show TLE details & history
Last TLE update: 6 hours ago

TLE from 6 hours ago
0 SL-8 DEB
1 01617U 65073J   25242.93466175  .00000048  00000-0  10102-2 0  9990
2 01617  56.1290 105.8523 0235934 291.0892 101.2928 12.34735750694594
Epoch: 2025-08-30T22:25Z
TLE epoch observation values (Epoch: 2025-08-30T22:25:54.775Z)
Latitude
28.52305°
Longitude
171.2989°
Altitude
1,571.449 km
Speed
7.067 km/s
True Right ascension
08h 28m 33s
True Declination
28° 23' 38"
Sunlit
Object was in daylight at epoch
Visualization orbit readout
Latitude
Unknown
Longitude
Unknown
Altitude
Unknown
Speed
Unknown
Apparent Right ascension
Unknown
Apparent Declination
Unknown
Sunlit
N/A
Visualization observer readout
Local Sidereal Time
20:18:57
Azimuth
Unknown
Elevation
Unknown
Doppler factor
Unknown
Orbital elements
Apogee altitude
1,715.365 km
Perigee altitude
1,342.261 km
Semi-major axis
7,906.95 km
Eccentricity
0.02359
Inclination
56.129°
RAAN
105.8523°
Arg. of periapsis
291.0892°
True anomaly
103.92791°
Mean anomaly
101.2928°
Eccentric anomaly
102.61198°
Mean motion
3.08695 °/min
Orbital period
116.62 mins
BSTAR
0.0010102
Loading maneuver chart data...
Computing Atmospheric mass density...
Loading historical data...
Loading historical data...
Loading historical data...
Loading historical data...
Loading historical data...
Loading historical data...
Loading historical data...

Documentation

Showing up to 5 results
|